Weather History for Glasgow, United Kingdom

Change the Weather History Date:

Tuesday, October 16, 2012

  Actual Average Record
Temperature  
Mean Temperature 40 °F -  
Max Temperature 46 °F 50 °F 60 °F (1997)
Min Temperature 35 °F 39 °F 30 °F (2002)
Degree Days  
Heating Degree Days 24    
Moisture  
Dew Point 37 °F    
Average Humidity 87    
Maximum Humidity 100    
Minimum Humidity 76    
Precipitation  
Precipitation 0.00 in - - ()
Sea Level Pressure  
Sea Level Pressure 29.37 in    
Wind  
Wind Speed 6 mph ()    
Max Wind Speed 10 mph    
Max Gust Speed -    
Visibility 5.9 miles    
Events Fog , Rain    
Averages and records for this station are not official NWS values.
T = Trace of Precipitation, MM = Missing Value Source: Averaged Metar Reports

Daily Weather History Graph

Daily Weather History Graph

Search for Another Location

Airport:

Trip Planner

Search our weather history database for the weather conditions in past years. The results will help you decide how hot, cold, wet, or windy it might be!

Date:

Astronomy

Oct. 16, 2012 Rise Set
Actual Time 7:51 AM BST 6:13 PM BST
Civil Twilight 7:13 AM BST 6:51 PM BST
Nautical Twilight 6:30 AM BST 7:34 PM BST
Astronomical Twilight 5:47 AM BST 8:17 PM BST
Moon 9:18 AM BST (10/16) 6:22 PM BST (10/16)
Length of Visible Light 11h 37m
Length of Day
10h 22m
New Moon, 1% of the Moon is Illuminated
Oct 16
New Moon
Oct 22
First Quarter
Oct 29
Full
Nov 7
Last Quarter
Nov 13
New

Hourly Weather History & Observations

Time (BST) Temp. Windchill Dew Point Humidity Pressure Visibility Wind Dir Wind Speed Gust Speed Precip Events Conditions
12:20 AM 37.4 °F 32.8 °F 33.8 °F 87% 29.36 in - East 5.8 mph - N/A   Clear
12:50 AM 37.4 °F 33.8 °F 33.8 °F 87% 29.36 in - East 4.6 mph - N/A   Clear
1:20 AM 37.4 °F 32.1 °F 33.8 °F 87% 29.36 in - NE 6.9 mph - N/A   Clear
1:50 AM 39.2 °F 34.2 °F 35.6 °F 87% 29.33 in - East 6.9 mph - N/A   Clear
2:20 AM 39.2 °F 35.0 °F 35.6 °F 87% 29.30 in - ENE 5.8 mph - N/A   Clear
2:50 AM 39.2 °F 35.0 °F 35.6 °F 87% 29.30 in 6.2 mi East 5.8 mph - N/A   Unknown
3:20 AM 41.0 °F 36.4 °F 35.6 °F 81% 29.30 in 6.2 mi ENE 6.9 mph - N/A   Unknown
3:50 AM 41.0 °F 35.8 °F 37.4 °F 87% 29.30 in 6.2 mi East 8.1 mph - N/A   Unknown
4:20 AM 41.0 °F 35.8 °F 37.4 °F 87% 29.27 in 6.2 mi ENE 8.1 mph - N/A Rain Rain
4:50 AM 41.0 °F 34.7 °F 37.4 °F 87% 29.27 in 6.2 mi ENE 10.4 mph - N/A Rain Rain
5:20 AM 41.0 °F 35.8 °F 37.4 °F 87% 29.27 in 5.6 mi East 8.1 mph - N/A Rain Rain
5:50 AM 41.0 °F 36.4 °F 37.4 °F 87% 29.27 in 5.6 mi ENE 6.9 mph - N/A Rain Rain
6:20 AM 41.0 °F 37.1 °F 37.4 °F 87% 29.27 in 5.0 mi NNE 5.8 mph - N/A Rain Rain
6:50 AM 41.0 °F 36.4 °F 39.2 °F 93% 29.27 in 5.0 mi NNE 6.9 mph - N/A Rain Rain
7:20 AM 41.0 °F 36.4 °F 37.4 °F 87% 29.27 in 5.0 mi North 6.9 mph - N/A Rain Rain
7:50 AM 39.2 °F 35.0 °F 37.4 °F 93% 29.27 in 4.3 mi North 5.8 mph - N/A Rain Light Rain
8:20 AM 39.2 °F 33.0 °F 37.4 °F 93% 29.27 in 5.0 mi North 9.2 mph - N/A Rain Rain
8:50 AM 39.2 °F 33.6 °F 37.4 °F 93% 29.27 in 6.2 mi North 8.1 mph - N/A Rain Light Rain
9:20 AM 41.0 °F 36.4 °F 37.4 °F 87% 29.30 in 6.2 mi North 6.9 mph - N/A Rain Light Rain
9:50 AM 41.0 °F 35.8 °F 37.4 °F 87% 29.30 in 6.2 mi NNW 8.1 mph - N/A Rain Light Rain
10:20 AM 41.0 °F 35.8 °F 37.4 °F 87% 29.33 in 6.2 mi NNW 8.1 mph - N/A Rain Light Rain
10:50 AM 41.0 °F 36.4 °F 37.4 °F 87% 29.33 in 6.2 mi NW 6.9 mph - N/A Rain Light Rain
11:20 AM 41.0 °F 37.1 °F 37.4 °F 87% 29.36 in 6.2 mi NNW 5.8 mph - N/A Rain Light Rain
11:50 AM 42.8 °F 39.3 °F 39.2 °F 87% 29.36 in 6.2 mi NW 5.8 mph - N/A Rain Light Rain
12:20 PM 42.8 °F 39.3 °F 39.2 °F 87% 29.39 in 6.2 mi West 5.8 mph - N/A Rain Light Rain
12:50 PM 42.8 °F 40.1 °F 41.0 °F 93% 29.39 in 6.2 mi West 4.6 mph - N/A Rain Light Rain
1:20 PM 44.6 °F 40.7 °F 39.2 °F 81% 29.39 in 6.2 mi NW 6.9 mph - N/A Rain Light Rain
1:50 PM 44.6 °F 41.4 °F 39.2 °F 81% 29.42 in 6.2 mi NW 5.8 mph - N/A Rain Light Rain
2:20 PM 44.6 °F 42.2 °F 39.2 °F 81% 29.42 in 6.2 mi West 4.6 mph - N/A   Mostly Cloudy
2:50 PM 46.4 °F 44.3 °F 39.2 °F 76% 29.42 in 6.2 mi West 4.6 mph - N/A   Scattered Clouds
3:20 PM 46.4 °F 44.3 °F 39.2 °F 76% 29.42 in 6.2 mi WSW 4.6 mph - N/A   Scattered Clouds
3:50 PM 46.4 °F 44.3 °F 39.2 °F 76% 29.42 in 6.2 mi WSW 4.6 mph - N/A   Scattered Clouds
4:20 PM 46.4 °F 43.5 °F 39.2 °F 76% 29.42 in 6.2 mi West 5.8 mph - N/A   Partly Cloudy
4:50 PM 46.4 °F 42.4 °F 39.2 °F 76% 29.42 in 6.2 mi WSW 8.1 mph - N/A   Partly Cloudy
5:20 PM 46.4 °F 41.9 °F 39.2 °F 76% 29.44 in 6.2 mi WSW 9.2 mph - N/A   Partly Cloudy
5:50 PM 44.6 °F 40.7 °F 37.4 °F 76% 29.44 in 6.2 mi SSW 6.9 mph - N/A   Partly Cloudy
6:20 PM 42.8 °F 38.0 °F 37.4 °F 81% 29.44 in 6.2 mi SSW 8.1 mph - N/A   Scattered Clouds
6:50 PM 42.8 °F 37.5 °F 39.2 °F 87% 29.44 in 6.2 mi SSW 9.2 mph - N/A   Mostly Cloudy
7:20 PM 44.6 °F 43.1 °F 39.2 °F 81% 29.47 in 6.2 mi Variable 3.5 mph - N/A   Overcast
7:50 PM 42.8 °F - 39.2 °F 87% 29.47 in 6.2 mi Variable 2.3 mph - N/A   Scattered Clouds
8:20 PM 41.0 °F - 39.2 °F 93% 29.47 in 6.2 mi Variable 2.3 mph - N/A   Scattered Clouds
8:50 PM 39.2 °F - 35.6 °F 87% 29.47 in - Variable 2.3 mph - N/A   Clear
9:20 PM 37.4 °F - 35.6 °F 93% 29.47 in 6.2 mi Variable 2.3 mph - N/A Fog Shallow Fog
9:50 PM 37.4 °F - 35.6 °F 93% 29.47 in 6.2 mi Calm Calm - N/A Fog Unknown
10:20 PM 37.4 °F - 37.4 °F 100% 29.50 in 5.6 mi ENE 2.3 mph - N/A Fog Fog
10:50 PM 35.6 °F - 33.8 °F 93% 29.50 in 5.0 mi NNE 2.3 mph - N/A Fog Patches of Fog
11:20 PM 35.6 °F - 35.6 °F 100% 29.50 in 5.0 mi Calm Calm - N/A Fog Patches of Fog
11:50 PM 35.6 °F 32.8 °F 35.6 °F 100% 29.50 in 5.6 mi ENE 3.5 mph - N/A Fog Fog